TimeEEST,TemperatureF,Dew PointF,Humidity,Sea Level PressureIn,VisibilityMPH,Wind Direction,Wind SpeedMPH,Gust SpeedMPH,PrecipitationIn,Events,Conditions,WindDirDegrees,DateUTC
12:50 AM,42.8,37.4,81,30.33,-9999.0,Calm,Calm,-,N/A,,Clear,0,2012-10-06 21:50:00
1:50 AM,41.0,37.4,87,30.33,-9999.0,Calm,Calm,-,N/A,,Clear,0,2012-10-06 22:50:00
3:00 AM,38,36,90,,6,NNW,1.2,,,,,330,2012-10-07 00:00:00
3:50 AM,37.4,35.6,93,30.30,-9999.0,WNW,4.6,-,N/A,,Clear,300,2012-10-07 00:50:00
4:50 AM,35.6,33.8,93,30.30,-9999.0,Variable,2.3,-,N/A,,Clear,0,2012-10-07 01:50:00
5:50 AM,35.6,33.8,93,30.30,-9999.0,NNW,1.2,-,N/A,,Clear,330,2012-10-07 02:50:00
6:50 AM,35.6,35.6,100,30.33,-9999.0,WNW,2.3,-,N/A,,Clear,300,2012-10-07 03:50:00
7:50 AM,41.0,37.4,87,30.33,6.2,Calm,Calm,-,N/A,,Scattered Clouds,0,2012-10-07 04:50:00
8:50 AM,50.0,39.2,66,30.33,6.2,Variable,1.2,-,N/A,,Partly Cloudy,0,2012-10-07 05:50:00
9:00 AM,49,38,56,,6,SW,1.2,,,,Scattered Clouds,220,2012-10-07 06:00:00
9:50 AM,57.2,41.0,55,30.33,6.2,Calm,Calm,-,N/A,,Partly Cloudy,0,2012-10-07 06:50:00
10:50 AM,60.8,41.0,48,30.30,6.2,Variable,3.5,-,N/A,,Partly Cloudy,0,2012-10-07 07:50:00
11:50 AM,64.4,39.2,40,30.30,6.2,WSW,3.5,-,N/A,,Scattered Clouds,240,2012-10-07 08:50:00
12:50 PM,66.2,41.0,40,30.24,6.2,East,8.1,-,N/A,,Mostly Cloudy,80,2012-10-07 09:50:00
1:50 PM,66.2,41.0,40,30.24,6.2,ENE,3.5,-,N/A,,Mostly Cloudy,60,2012-10-07 10:50:00
2:50 PM,68.0,33.8,28,30.21,6.2,Variable,4.6,-,N/A,,Mostly Cloudy,0,2012-10-07 11:50:00
3:00 PM,67,32,17,,6,West,4.6,,,,Mostly Cloudy,270,2012-10-07 12:00:00
3:50 PM,66.2,35.6,32,30.21,6.2,SW,13.8,-,N/A,,Mostly Cloudy,220,2012-10-07 12:50:00
4:50 PM,62.6,39.2,42,30.21,6.2,SSW,17.3,-,N/A,,Scattered Clouds,200,2012-10-07 13:50:00
5:50 PM,57.2,41.0,55,30.27,6.2,West,15.0,-,N/A,,Mostly Cloudy,260,2012-10-07 14:50:00
6:50 PM,53.6,42.8,67,30.27,6.2,West,4.6,-,N/A,,Mostly Cloudy,270,2012-10-07 15:50:00
7:50 PM,50.0,41.0,71,30.27,6.2,SSE,6.9,-,N/A,,Mostly Cloudy,150,2012-10-07 16:50:00
8:50 PM,50.0,41.0,71,30.27,6.2,NW,5.8,-,N/A,,Mostly Cloudy,320,2012-10-07 17:50:00
9:00 PM,49,42,67,,6,NW,5.8,,,,Partly Cloudy,320,2012-10-07 18:00:00
9:50 PM,48.2,41.0,76,30.27,6.2,SW,5.8,-,N/A,,Mostly Cloudy,230,2012-10-07 18:50:00
10:50 PM,48.2,39.2,71,30.27,6.2,Variable,1.2,-,N/A,,Mostly Cloudy,0,2012-10-07 19:50:00
11:50 PM,46.4,41.0,81,30.27,6.2,West,8.1,-,N/A,,Scattered Clouds,260,2012-10-07 20:50:00